Wetbulb
55.84 56.54 54.74 54.26 54.38 55.24 56.34 56.58 57.19 57.14 56.38 56.98 56.58 56.99 57.43 57.31 57.76 57.34 56.55 56.05 52.35 53.90 51.16 49.41 50.07 46.97 44.62 41.55 39.77 37.89 36.39 35.69 33.11 30.55 32.22 32.54 32.44 32.00 32.90 33.33 33.12 32.92 31.91
53.30 54.61 55.48 55.60 54.80 54.75 55.37 56.44 57.67 58.39 58.41 58.21 57.48 56.98 56.97 56.95 57.22 55.51 54.85 52.66 51.90 51.23 50.99 46.52 46.32 41.07 40.90 39.64 37.26 36.65 35.71 35.59 33.66 30.64 30.37 30.79 31.41 32.18 31.58 31.93 31.90 32.81 31.49
44.19 48.08 49.53 50.68 51.43 52.57 54.65 55.74 55.48 56.20 57.16 55.64 56.29 56.12 55.87 54.94 53.49 52.41 53.06 51.02 48.67 48.52 47.40 44.14 44.80 41.23 38.05 36.63 35.41 34.99 34.63 34.45 33.25 31.12 29.82 30.93 30.71 30.81 29.98 30.23 30.18 29.91 31.14
41.11 41.26 41.54 42.14 43.69 44.96 46.31 47.28 48.41 49.66 51.35 50.91 50.14 49.72 48.81 48.27 47.87 47.35 46.97 45.85 44.11 43.63 42.87 41.87 40.88 38.56 37.83 35.24 34.48 33.91 33.05 32.09 31.62 31.14 30.66 30.05 29.41 29.70 28.80 28.16 27.59 27.55 28.50
40.82 41.05 40.97 40.79 42.10 42.47 42.24 43.30 42.71 42.93 43.78 44.16 44.34 43.46 44.02 44.33 44.29 43.80 42.91 41.81 40.72 40.41 38.88 38.65 38.00 36.52 36.72 36.38 34.69 33.14 32.86 31.75 31.44 31.06 29.96 29.67 29.16 28.07 28.38 28.20 28.04 27.17 27.40
39.90 39.39 39.42 38.59 37.30 36.90 38.09 38.21 38.85 38.89 39.61 37.33 39.15 38.65 38.74 41.12 40.95 41.40 40.83 39.95 38.88 37.80 36.40 35.40 34.63 33.26 35.82 36.69 36.27 35.74 34.69 32.23 30.88 31.04 31.09 29.86 30.24 29.39 28.56 27.19 26.97 25.07 24.94
36.34 35.17 35.32 35.65 35.37 34.61 34.28 34.32 34.00 34.09 34.66 37.13 36.92 36.57 36.56 36.17 38.52 39.69 39.20 36.73 36.40 35.98 35.05 33.61 32.76 33.19 33.63 34.38 36.26 36.40 35.57 36.22 35.71 33.52 30.72 30.39 29.21 30.16 29.33 26.13 26.15 26.26 26.34
34.44 34.40 34.17 34.38 33.82 33.14 32.86 32.71 32.49 32.69 34.12 34.69 34.30 34.45 34.49 34.21 36.88 38.28 37.74 35.30 34.79 34.50 33.99 33.34 32.76 32.22 33.11 32.98 33.58 33.01 33.07 33.69 34.70 33.73 32.06 30.69 30.26 31.07 31.70 29.73 27.22 25.66 25.05
32.91 32.89 32.74 32.79 29.79 30.19 28.33 28.25 32.57 32.82 32.00 31.75 31.81 32.61 32.31 32.44 35.15 37.54 35.97 33.40 32.81 32.52 32.65 32.92 32.86 32.17 33.83 35.10 32.42 32.12 32.11 32.30 34.56 36.04 34.87 34.53 35.02 34.79 32.05 28.30 23.35 19.10 16.60
32.04 32.18 31.90 30.91 29.40 29.01 29.05 28.04 29.96 31.73 30.54 29.60 30.96 29.07 28.33 27.78 34.57 37.54 35.62 32.01 31.03 30.92 31.23 31.85 31.47 32.67 34.73 35.59 32.33 32.28 30.67 31.20 28.04 30.93 32.83 34.00 34.55 32.64 34.44 30.14 27.55 22.85 18.50
30.41 28.86 26.53 26.44 25.48 25.84 24.29 23.67 24.30 25.75 28.22 22.27 24.11 24.12 25.59 27.20 29.50 36.66 37.23 32.02 31.98 29.19 30.94 30.59 31.04 34.54 34.73 35.68 35.56 32.12 31.75 30.71 29.04 26.02 31.81 31.91 31.88 31.72 31.70 32.06 28.58 28.08 23.24
25.88 25.14 23.64 21.36 25.42 23.19 22.01 18.57 20.01 21.29 21.76 21.14 21.38 22.23 23.09 25.05 30.72 33.78 36.93 35.64 33.64 30.06 29.00 27.94 29.40 33.37 34.97 35.16 34.13 34.74 34.28 30.58 21.98 26.79 28.93 29.21 29.37 29.58 30.57 31.16 31.21 29.40 30.25
22.06 19.78 19.17 21.09 22.17 21.00 21.05 19.22 21.21 19.79 20.39 20.68 22.16 21.46 22.56 24.16 25.00 32.12 34.31 36.63 36.17 29.16 29.96 30.22 32.46 33.09 33.98 34.20 35.04 34.95 32.61 31.61 29.67 27.86 27.30 28.17 29.04 29.82 28.20 28.24 28.60 28.94 28.16
21.09 20.38 20.01 21.39 20.87 20.55 22.61 21.76 20.08 18.97 18.88 18.72 18.86 18.93 18.01 20.79 22.09 23.20 25.54 28.31 31.11 33.49 31.46 29.42 31.64 31.69 32.58 32.33 30.52 32.15 30.97 31.74 30.07 28.83 28.48 29.45 30.28 24.06 27.30 27.67 26.85 25.60 24.54
22.41 21.32 20.44 19.87 19.46 20.09 20.02 20.02 21.85 18.22 20.85 16.19 13.33 13.46 15.06 17.83 21.40 30.24 27.92 22.50 30.22 31.65 31.11 29.97 29.27 28.49 27.99 28.47 29.13 30.25 31.10 31.66 31.28 31.05 29.85 29.17 28.83 28.65 27.80 28.01 26.43 26.20 23.61
21.17 20.26 19.48 19.97 17.92 18.34 20.19 20.00 30.50 30.90 31.38 31.47 31.31 25.87 17.81 28.60 32.31 32.62 32.83 32.71 32.59 32.61 30.81 28.35 27.26 26.89 26.54 26.97 27.29 28.18 29.07 29.04 29.30 29.70 29.77 29.39 28.54 28.24 27.96 27.66 26.50 25.24 24.23
20.00 18.28 17.46 17.36 16.82 17.02 14.95 16.40 17.63 18.40 28.51 29.43 29.65 29.37 30.49 30.86 31.20 31.75 32.00 32.24 31.87 31.24 27.75 27.81 27.60 27.39 27.66 27.43 27.96 28.35 27.65 27.74 29.22 29.11 28.91 28.99 29.15 29.03 28.61 26.86 26.08 23.59 23.67
14.35 14.49 15.34 13.83 14.30 13.25 13.01 9.87 9.86 11.78 8.88 9.75 20.03 24.79 26.50 28.81 29.71 30.32 30.96 29.30 25.73 28.31 27.75 27.17 27.20 27.77 28.25 27.64 27.44 22.62 23.79 21.54 25.28 26.97 27.07 27.55 28.16 28.14 27.63 26.19 25.42 24.11 22.44
14.42 12.59 10.92 10.15 10.21 10.38 9.27 8.62 6.69 7.17 5.79 2.86 4.18 15.04 12.95 23.28 24.16 24.27 24.09 11.14 15.24 22.82 24.90 25.37 26.25 26.34 24.41 25.44 26.39 27.08 27.63 26.92 26.84 27.43 27.14 26.82 27.24 27.10 26.22 25.74 25.41 23.93 22.62
8.46 9.57 8.35 7.90 7.20 6.97 6.76 6.96 5.76 4.67 2.42 0.16 0.58 2.25 2.71 5.38 1.17 1.89 1.92 2.44 6.96 5.96 9.76 9.46 11.65 13.30 15.35 16.04 17.02 18.01 19.14 22.26 25.91 27.00 26.89 26.96 26.70 26.34 25.02 24.35 23.60 22.16 21.34
3.91 4.20 5.00 3.85 3.09 1.37 -0.23 2.21 0.92 -0.20 -2.12 -4.59 -1.65 2.91 18.37 -3.23 -6.47 -6.51 -6.31 -4.17 -3.21 -2.32 -0.42 -1.53 2.37 6.33 8.94 9.03 7.99 10.51 12.05 14.80 17.21 18.28 19.26 20.17 20.65 21.44 21.04 21.72 21.22 20.71 19.98
4.97 2.87 1.90 0.87 -0.02 2.32 -1.59 -3.09 -4.05 -3.76 -5.77 -3.77 -2.98 -1.45 13.18 -4.61 -7.45 -7.42 -7.83 -7.69 -7.96 -7.25 -7.36 -7.07 -4.21 -2.45 0.63 3.30 4.09 1.76 1.57 4.57 6.76 10.73 12.57 13.81 15.00 16.12 15.14 16.98 15.05 13.26 14.82
6.26 4.07 1.57 -0.23 0.03 -0.40 -0.08 -1.69 -1.48 -6.51 -7.44 -9.38 -8.99 -5.45 -6.89 -9.14 -9.30 -8.78 -9.14 -9.85 -9.28 -8.32 -6.11 -8.49 -8.45 -5.31 -3.82 -6.57 -6.67 -5.28 -3.47 -0.35 2.25 5.41 7.90 7.07 7.93 11.83 10.94 13.53 12.32 10.42 8.84
4.53 5.57 4.94 2.91 1.66 -1.47 -2.75 -5.63 -5.64 -4.90 -4.12 -9.03 -12.51 -11.70 -7.49 -8.65 -10.43 -9.25 -9.48 -10.26 -7.84 -8.77 -12.26 -10.90 -8.74 -7.83 -7.32 -6.86 -6.37 -8.19 -9.50 -4.43 -1.87 3.51 5.04 5.68 6.43 5.48 6.87 8.56 10.23 9.96 10.69
3.86 3.84 2.99 0.78 1.01 0.30 -3.34 -6.25 -6.11 -10.00 -9.36 -5.54 -5.93 -6.96 -6.66 -7.26 -9.06 -9.64 -8.83 -9.80 -11.32 -12.31 -6.82 -5.67 -6.04 -7.14 -6.79 -6.36 -5.70 -4.75 -3.27 1.17 0.04 0.81 3.95 3.51 3.40 4.25 4.33 6.02 5.71 3.81 4.86
2.71 2.54 2.01 0.35 -1.62 -3.21 -4.32 -5.06 -6.56 -6.09 -7.02 -7.26 -7.10 -7.56 -6.63 -7.89 -8.44 -8.67 -9.94 -10.22 -7.07 -6.19 -5.33 -6.70 -7.57 -8.48 -7.60 -6.07 -5.97 -1.37 2.49 8.87 7.23 8.35 6.17 1.33 2.04 -0.58 -0.26 2.33 3.04 1.96 2.08
MSLP
1014.02 1014.32 1014.75 1015.10 1015.44 1015.85 1016.07 1016.16 1016.46 1016.82 1017.01 1017.33 1017.48 1017.65 1017.80 1017.92 1018.08 1018.39 1018.49 1018.56 1018.74 1018.92 1019.38 1019.73 1019.72 1020.06 1020.51 1021.08 1022.11 1021.63 1023.41 1022.93 1024.64 1024.91 1025.22 1025.33 1025.95 1025.97 1026.55 1027.28 1027.59 1027.56 1027.42
1013.86 1014.14 1014.25 1014.40 1014.64 1014.98 1015.23 1015.40 1015.67 1015.93 1016.17 1016.39 1016.65 1016.91 1017.18 1017.31 1017.49 1017.60 1017.69 1017.89 1018.16 1018.48 1018.69 1019.33 1019.50 1019.88 1020.31 1020.55 1021.57 1023.26 1022.74 1023.79 1024.48 1024.59 1025.64 1025.62 1025.80 1026.36 1026.24 1026.56 1026.97 1027.20 1027.29
1013.96 1014.15 1014.42 1014.69 1014.86 1014.91 1014.99 1015.16 1015.39 1015.57 1015.80 1015.96 1016.22 1016.42 1016.52 1016.69 1016.91 1017.08 1017.34 1017.60 1017.84 1018.01 1018.29 1018.79 1019.25 1019.68 1020.20 1020.71 1021.27 1021.83 1023.31 1023.44 1024.40 1024.60 1025.04 1025.84 1025.76 1026.04 1026.65 1026.98 1027.08 1027.10 1027.03
1014.36 1014.66 1014.90 1015.13 1015.28 1015.41 1015.48 1015.59 1015.80 1015.92 1016.02 1016.14 1016.35 1016.57 1016.73 1017.12 1017.10 1017.46 1017.59 1017.69 1017.85 1018.15 1018.40 1018.70 1018.85 1019.30 1019.72 1020.39 1020.86 1021.97 1022.24 1022.89 1024.09 1024.50 1024.78 1026.00 1026.08 1026.40 1026.32 1026.75 1027.00 1026.85 1026.72
1014.60 1014.95 1015.16 1015.32 1015.46 1015.72 1015.94 1016.11 1016.32 1016.51 1016.64 1016.80 1016.94 1017.28 1017.31 1017.44 1017.51 1017.64 1017.72 1018.00 1018.24 1018.63 1019.01 1019.16 1019.58 1019.89 1020.30 1020.63 1020.92 1021.81 1022.55 1023.64 1023.52 1024.38 1024.34 1025.04 1025.84 1026.07 1025.70 1025.75 1026.05 1026.24 1026.08
1014.86 1015.31 1015.63 1015.91 1016.19 1016.44 1016.75 1016.86 1016.85 1016.97 1017.13 1017.44 1017.46 1017.75 1017.91 1017.99 1018.11 1018.07 1018.26 1018.36 1018.55 1018.65 1019.07 1019.38 1019.37 1020.03 1020.33 1020.56 1020.63 1021.19 1021.44 1021.62 1022.32 1023.80 1024.09 1024.09 1024.28 1025.01 1025.18 1025.32 1025.59 1026.02 1026.00
1014.88 1015.29 1015.64 1015.92 1016.31 1016.58 1016.71 1016.92 1017.21 1017.40 1017.40 1017.54 1017.82 1017.95 1017.96 1017.98 1017.95 1017.97 1018.15 1018.35 1018.59 1018.75 1019.00 1019.38 1019.53 1020.00 1020.03 1020.73 1021.07 1021.13 1021.29 1021.40 1021.67 1022.41 1022.56 1022.44 1023.19 1023.72 1024.19 1024.43 1024.66 1024.91 1024.86
1015.18 1015.52 1015.79 1016.14 1016.46 1016.69 1017.02 1017.24 1017.32 1017.42 1017.53 1017.66 1017.88 1018.25 1018.29 1018.08 1018.07 1018.06 1018.14 1018.23 1018.58 1018.77 1019.00 1019.14 1019.16 1019.54 1019.79 1019.95 1020.38 1020.67 1020.73 1020.73 1020.99 1021.29 1022.13 1022.09 1022.15 1022.53 1022.80 1023.36 1023.92 1024.61 1024.94
1015.39 1015.60 1015.95 1016.20 1016.51 1016.78 1017.02 1017.34 1017.36 1017.48 1017.49 1017.56 1017.80 1017.89 1018.05 1017.77 1017.55 1017.67 1017.81 1017.89 1018.21 1018.60 1018.74 1018.76 1019.14 1019.41 1019.71 1020.29 1020.64 1020.98 1021.07 1021.03 1021.18 1021.41 1021.84 1022.16 1022.25 1022.27 1022.47 1023.29 1023.64 1024.55 1024.82
1015.62 1015.98 1016.10 1016.25 1016.54 1016.49 1016.80 1016.84 1016.92 1017.07 1017.33 1017.36 1017.76 1017.88 1018.16 1018.16 1018.01 1017.71 1017.70 1018.12 1018.51 1018.82 1019.12 1019.23 1019.19 1019.03 1019.28 1019.55 1019.71 1020.08 1020.58 1020.73 1021.12 1021.35 1021.41 1021.54 1021.74 1022.05 1022.16 1022.28 1022.45 1023.23 1023.91
1015.24 1016.05 1016.81 1016.76 1017.19 1017.21 1017.68 1017.74 1017.84 1018.11 1017.97 1018.38 1018.48 1018.40 1018.20 1018.22 1018.29 1018.21 1018.35 1018.52 1018.36 1018.89 1019.24 1019.12 1019.05 1019.12 1019.38 1019.30 1019.54 1020.01 1020.09 1020.44 1020.68 1020.98 1021.07 1021.23 1021.47 1021.56 1021.64 1021.67 1021.80 1021.86 1022.42
1015.92 1017.08 1017.34 1017.75 1017.76 1017.99 1018.06 1018.69 1019.09 1019.12 1019.06 1019.40 1019.62 1019.50 1019.28 1019.08 1018.90 1018.75 1018.71 1018.80 1018.59 1018.55 1018.66 1019.07 1019.57 1019.76 1019.72 1019.52 1019.84 1019.98 1020.16 1020.09 1020.45 1021.11 1021.16 1020.69 1020.74 1020.96 1020.95 1021.03 1021.01 1021.12 1021.28
1017.36 1017.78 1018.14 1018.24 1018.41 1018.29 1018.37 1019.05 1019.29 1019.53 1020.02 1020.51 1020.58 1020.63 1020.44 1019.99 1019.66 1019.42 1019.33 1019.34 1019.42 1019.51 1019.45 1019.49 1019.26 1018.92 1018.93 1019.01 1019.53 1019.99 1020.10 1020.09 1020.60 1020.99 1020.82 1020.65 1020.57 1020.38 1020.33 1020.70 1021.00 1021.13 1021.23
1017.44 1017.97 1018.16 1018.46 1018.58 1018.63 1018.72 1019.09 1019.32 1019.63 1019.74 1020.25 1020.86 1021.17 1021.04 1020.74 1020.35 1019.91 1019.58 1019.36 1019.41 1019.45 1019.65 1019.67 1020.00 1019.97 1019.73 1019.84 1019.66 1019.72 1020.02 1020.08 1020.48 1020.30 1020.17 1020.21 1020.40 1020.82 1020.60 1020.36 1020.42 1020.64 1020.94
1017.51 1017.63 1018.00 1018.30 1018.63 1018.79 1019.28 1019.28 1019.22 1019.31 1019.43 1020.02 1020.68 1021.07 1020.69 1020.57 1020.60 1020.06 1019.73 1019.72 1019.82 1019.81 1019.88 1020.06 1020.02 1019.83 1019.73 1019.84 1019.98 1019.91 1019.90 1019.85 1019.81 1019.73 1019.64 1019.57 1019.67 1019.77 1020.01 1020.02 1020.04 1020.06 1020.17
1017.74 1018.07 1018.51 1018.56 1018.80 1019.05 1019.30 1019.40 1019.34 1019.60 1019.73 1020.05 1020.34 1020.33 1020.16 1020.14 1019.98 1019.89 1019.72 1019.74 1019.61 1019.64 1019.79 1019.90 1019.87 1020.02 1020.10 1020.14 1020.07 1019.88 1019.66 1019.69 1019.59 1019.55 1019.42 1019.09 1018.85 1018.83 1018.93 1019.15 1019.11 1019.02 1019.02
1018.04 1018.54 1018.99 1019.50 1019.55 1019.60 1019.71 1020.02 1020.23 1020.35 1020.27 1020.56 1020.77 1020.64 1020.66 1020.60 1020.30 1019.96 1019.88 1019.77 1019.87 1019.91 1020.19 1020.19 1020.05 1019.77 1019.77 1019.70 1019.71 1019.67 1019.24 1018.72 1018.72 1018.80 1018.78 1018.55 1018.27 1017.89 1017.95 1018.08 1018.14 1018.21 1018.17
1018.73 1019.09 1019.26 1019.68 1019.98 1020.39 1020.80 1021.14 1021.22 1021.39 1021.69 1021.34 1020.94 1021.04 1021.01 1020.58 1020.42 1020.35 1020.26 1020.08 1020.59 1020.47 1020.58 1020.47 1020.46 1020.28 1019.96 1019.61 1019.62 1019.34 1019.12 1018.85 1018.67 1018.52 1018.25 1018.03 1017.88 1017.37 1017.39 1017.45 1017.47 1017.41 1017.49
1019.56 1019.73 1020.06 1020.35 1020.70 1021.25 1021.90 1022.06 1022.11 1022.29 1022.49 1022.65 1022.30 1022.12 1021.70 1021.42 1021.44 1021.37 1021.32 1021.54 1021.69 1021.62 1021.57 1021.25 1020.68 1020.55 1020.26 1019.82 1019.43 1019.05 1018.76 1018.53 1018.25 1017.79 1017.53 1017.44 1017.26 1017.10 1017.05 1017.00 1016.94 1016.91 1016.99
1020.33 1020.45 1020.67 1021.14 1021.67 1022.00 1022.39 1022.74 1023.11 1023.25 1023.53 1023.57 1023.67 1023.73 1023.15 1022.84 1023.03 1023.18 1022.96 1022.86 1022.83 1022.96 1022.52 1022.52 1022.27 1021.92 1021.54 1021.25 1020.83 1020.31 1019.90 1019.22 1018.44 1017.85 1017.34 1017.00 1016.86 1016.79 1016.74 1016.68 1016.65 1016.64 1016.73
1021.38 1021.56 1021.89 1022.41 1022.67 1022.71 1022.84 1023.12 1023.44 1023.75 1024.08 1024.22 1024.23 1023.91 1023.47 1024.20 1024.22 1024.34 1024.30 1024.12 1024.18 1023.92 1023.70 1023.33 1023.03 1022.65 1022.16 1021.86 1021.50 1021.05 1020.65 1020.15 1019.52 1018.96 1018.51 1018.08 1017.75 1017.33 1017.11 1016.96 1016.93 1016.96 1016.92
1021.99 1022.39 1022.55 1022.95 1023.26 1023.29 1023.40 1023.51 1023.68 1023.86 1024.27 1024.64 1024.98 1024.60 1024.20 1024.53 1024.69 1024.70 1024.52 1024.36 1024.38 1024.24 1024.15 1023.79 1023.49 1023.28 1022.66 1022.40 1022.07 1021.70 1021.19 1020.52 1019.95 1019.64 1019.15 1018.66 1018.28 1017.77 1017.41 1017.17 1016.99 1016.91 1016.65
1022.53 1022.88 1023.32 1023.56 1023.59 1023.75 1023.77 1023.88 1024.14 1024.35 1024.74 1025.09 1025.23 1024.89 1024.51 1024.67 1024.53 1024.57 1024.54 1024.64 1024.52 1024.24 1023.95 1023.81 1023.82 1023.44 1022.71 1022.49 1022.15 1022.03 1021.56 1020.98 1020.55 1020.16 1019.61 1018.93 1018.45 1018.10 1017.62 1017.17 1017.13 1016.91 1016.88
1022.70 1023.00 1023.51 1023.83 1023.97 1024.14 1024.28 1024.32 1024.26 1024.43 1024.64 1024.86 1025.13 1024.88 1024.75 1024.69 1024.53 1024.40 1024.43 1024.40 1024.02 1023.98 1023.96 1023.74 1023.49 1023.20 1022.80 1022.38 1021.89 1021.53 1021.22 1020.66 1020.21 1019.77 1019.55 1019.14 1018.60 1018.25 1017.93 1017.50 1017.10 1017.11 1017.15
1023.03 1023.34 1023.65 1023.99 1024.18 1024.10 1024.36 1024.46 1024.43 1024.51 1024.62 1024.68 1024.73 1024.64 1024.45 1024.44 1024.37 1024.21 1024.11 1023.90 1023.87 1023.86 1023.37 1023.12 1022.89 1022.57 1022.32 1021.92 1021.63 1021.26 1020.72 1020.19 1019.81 1019.40 1019.20 1018.80 1018.35 1017.96 1017.88 1017.60 1017.32 1017.32 1017.20
1023.23 1023.42 1023.71 1024.11 1024.21 1024.26 1024.43 1024.52 1024.44 1024.47 1024.57 1024.47 1024.32 1024.18 1024.06 1023.88 1023.65 1023.58 1023.59 1023.55 1023.43 1023.02 1022.56 1022.36 1022.19 1022.17 1022.01 1021.65 1021.22 1020.83 1020.33 1019.54 1018.92 1018.21 1018.12 1018.50 1018.22 1017.83 1017.73 1017.56 1017.51 1017.55 1017.30
Wind_Speed
8 9 8 8 8 8 11 11 11 9 8 11 12 12 13 13 13 12 13 12 12 13 8 10 13 6 5 2 2 3 2 4 2 1 1 4 6 7 6 4 4 4 4
7 7 8 8 10 12 12 12 10 12 11 13 12 12 12 12 11 12 13 9 11 11 10 7 9 4 5 5 4 1 4 2 3 4 0 2 2 5 5 6 4 4 3
4 5 5 5 6 6 6 5 6 6 8 7 8 11 11 9 8 8 8 6 7 7 6 6 7 6 4 5 6 7 3 2 2 2 4 1 0 2 2 1 3 3 3
1 2 3 3 3 3 3 4 4 4 4 3 2 2 2 2 0 2 4 4 4 4 4 5 6 7 7 8 7 6 5 6 3 2 3 2 2 2 2 3 3 2 2
3 3 2 2 3 4 5 5 5 5 5 5 5 5 4 2 1 3 3 4 3 3 1 1 1 3 7 9 6 6 8 4 3 3 4 3 3 3 6 3 3 2 3
4 5 5 5 6 6 5 5 5 5 5 4 6 4 5 3 5 3 3 2 3 3 3 3 5 7 10 12 12 15 13 9 7 5 5 7 8 4 3 3 3 3 3
7 5 5 5 5 5 5 5 5 5 3 4 4 3 3 3 4 5 5 2 2 3 4 4 4 4 6 6 10 12 12 13 9 9 9 11 5 8 6 5 4 3 4
6 6 5 5 6 5 5 5 4 3 4 3 4 5 4 3 5 6 3 3 2 3 4 5 6 7 7 8 9 8 8 9 10 8 9 6 5 7 8 6 6 3 2
5 5 4 5 5 5 5 4 4 3 2 3 2 2 1 2 2 3 5 4 4 3 4 5 5 5 9 12 6 5 6 7 8 11 10 9 9 12 10 5 4 3 3
6 6 6 6 6 7 6 6 3 3 3 3 2 1 1 2 5 2 5 2 3 1 1 2 5 6 14 17 9 8 6 7 5 4 6 8 10 8 15 9 6 6 3
5 4 3 4 4 4 3 4 3 2 4 4 4 3 3 3 5 6 5 1 1 1 2 2 3 12 14 16 14 7 8 2 8 5 7 6 5 7 8 9 8 7 5
6 5 5 4 3 3 6 4 4 4 5 5 6 5 4 4 6 6 6 6 3 3 3 2 2 10 12 12 10 12 13 7 3 4 7 9 9 10 9 9 9 9 8
6 5 4 4 4 4 6 5 4 5 5 5 5 4 5 5 5 11 11 10 6 3 3 4 5 7 10 10 14 14 9 5 4 6 9 9 7 6 4 4 6 8 7
8 6 4 5 5 5 5 4 5 4 4 4 3 4 4 4 4 4 3 4 7 2 3 2 4 5 6 6 2 4 2 5 7 9 8 7 6 1 5 6 5 5 6
7 6 6 5 5 6 4 3 4 3 4 4 1 2 2 1 3 8 6 2 4 4 3 1 1 2 4 2 3 3 3 4 5 6 8 8 7 6 7 5 6 5 7
8 5 4 5 4 4 5 5 14 14 14 12 10 6 1 2 8 8 9 8 7 6 0 1 1 1 2 3 5 5 4 5 6 7 7 7 8 8 8 7 7 8 9
8 6 4 3 3 5 4 4 5 4 12 14 14 14 13 11 12 9 7 6 6 5 2 3 2 2 3 3 5 5 6 6 6 6 8 8 8 8 9 8 7 7 8
6 7 5 4 4 4 4 3 3 4 3 2 7 11 13 11 12 12 12 5 2 3 1 1 3 4 4 4 5 3 4 3 5 7 8 8 9 8 8 7 7 8 8
5 5 4 4 4 5 4 3 3 3 3 2 3 6 8 11 12 13 14 3 2 4 5 5 5 6 5 5 6 6 6 7 7 7 7 7 7 6 8 7 7 8 7
5 7 6 4 4 4 3 4 3 4 3 3 3 3 4 5 4 4 3 3 4 3 3 4 5 4 4 5 6 6 6 9 9 7 8 7 5 5 7 7 6 6 6
4 4 5 4 4 3 3 4 3 3 3 2 0 3 7 3 1 2 3 4 3 3 3 3 3 3 3 4 3 4 4 5 6 6 6 5 6 5 3 3 3 4 5
4 3 3 4 2 3 3 2 2 3 3 2 1 3 7 3 2 2 1 1 2 2 2 1 2 3 2 3 3 3 3 4 3 4 5 6 6 5 4 4 3 2 3
4 4 3 2 2 3 3 3 2 3 2 1 0 0 0 0 1 2 2 3 2 3 3 2 2 4 3 3 2 2 3 4 4 4 6 5 4 5 4 6 4 3 2
4 3 3 2 2 2 2 2 2 3 3 2 1 1 1 1 2 3 3 3 2 3 3 2 2 4 4 4 4 4 3 5 4 5 7 5 5 5 4 5 4 4 4
3 3 2 2 2 2 1 1 1 1 1 2 2 2 2 2 3 3 3 2 2 2 4 4 3 4 6 8 8 9 8 9 7 6 5 5 5 6 4 4 3 2 3
2 1 1 1 2 2 2 3 3 2 2 2 3 3 4 4 4 3 3 3 3 4 4 3 4 7 8 7 8 10 10 11 9 8 3 3 4 3 3 4 5 3 3
Wind_Direction
189 196 199 202 203 205 215 217 220 215 203 208 208 211 218 222 224 225 231 229 219 236 228 228 241 228 234 234 13 88 93 121 265 106 170 170 172 170 180 190 203 212 229
198 195 202 195 195 207 216 221 210 217 214 216 215 218 225 229 229 221 228 224 225 238 245 231 241 185 202 146 127 59 115 156 164 171 6 87 142 201 176 178 200 217 206
208 215 226 224 213 219 224 224 223 218 223 212 214 221 227 224 220 224 237 232 226 237 229 216 243 196 192 148 133 145 150 91 74 152 140 308 109 135 125 243 200 229 234
159 211 238 255 269 294 322 332 331 334 327 326 346 24 43 12 331 258 247 243 235 233 212 207 195 184 179 163 146 161 141 138 160 118 85 155 164 208 149 181 217 197 221
101 101 81 92 82 73 64 54 46 39 35 33 45 30 28 18 243 233 231 233 236 250 239 139 151 153 153 164 151 151 143 167 136 177 141 162 192 194 207 180 188 162 231
89 77 64 62 61 64 58 49 54 52 52 49 46 33 6 352 344 309 283 260 230 201 207 165 139 146 165 167 163 170 176 169 158 170 202 211 208 199 177 179 154 169 241
124 122 116 117 112 101 98 92 82 83 87 76 58 42 2 2 343 303 262 245 232 223 195 174 158 178 156 171 184 183 187 185 190 206 209 207 185 194 159 178 183 176 212
118 119 121 127 126 117 105 102 105 98 82 67 49 22 5 13 342 326 289 173 195 219 208 194 178 170 182 169 174 181 192 204 208 211 221 211 190 177 186 178 175 183 4
131 134 136 129 121 119 113 127 121 113 117 134 160 144 168 252 278 254 161 166 182 198 194 186 189 177 187 187 167 193 219 231 226 217 221 222 208 189 170 136 168 130 239
154 160 162 158 156 152 160 160 154 149 157 148 125 43 323 319 323 252 162 122 140 151 242 227 211 180 181 188 186 197 218 224 182 206 211 220 221 216 204 205 162 186 160
136 118 79 64 65 54 54 22 35 48 72 47 49 16 18 3 331 317 193 345 99 111 229 217 224 213 203 203 216 207 223 183 203 200 218 219 218 223 224 216 205 199 191
88 93 79 62 73 86 91 45 36 43 52 30 20 14 0 356 344 335 295 215 225 161 189 192 238 249 240 239 239 227 233 210 141 205 235 234 231 235 231 226 216 213 224
93 90 98 93 76 75 89 82 77 59 50 23 25 13 351 355 350 348 335 320 261 318 343 296 262 242 238 247 247 250 230 211 212 244 249 253 251 248 217 210 228 237 241
122 125 103 98 92 75 75 75 85 75 74 78 53 23 350 349 344 341 345 356 339 290 310 312 302 293 278 279 293 269 232 229 245 254 253 260 269 270 239 226 230 221 236
121 112 116 107 100 95 81 118 109 155 130 120 147 152 131 346 292 335 345 343 334 314 327 0 329 331 311 305 297 278 263 258 255 258 263 266 264 254 249 231 229 224 230
125 124 120 108 110 119 127 87 66 79 77 70 76 74 235 11 12 5 15 11 357 327 153 227 239 225 264 293 295 280 258 268 270 272 271 264 260 254 252 239 226 223 235
120 118 98 91 100 107 79 97 115 32 78 67 60 48 39 31 26 19 5 357 354 352 327 314 275 238 252 237 248 256 258 238 242 249 255 260 256 252 250 241 233 227 239
105 104 111 115 105 89 88 96 91 98 100 337 21 50 30 31 38 29 18 37 19 6 332 290 294 294 287 278 274 259 259 252 247 254 255 259 261 260 257 246 239 237 237
112 100 98 94 85 92 88 77 79 77 69 40 5 11 8 19 43 37 38 64 23 10 5 353 351 333 311 294 289 279 267 265 265 263 261 257 255 254 261 258 256 241 235
71 89 79 94 107 105 99 98 83 85 80 67 37 332 333 26 35 4 15 21 28 12 4 359 342 328 332 342 337 337 340 347 331 295 276 264 254 250 259 260 248 244 238
86 77 87 76 72 89 108 112 128 117 113 96 161 305 59 102 75 45 13 11 6 351 334 335 323 321 326 330 330 332 326 325 330 332 330 335 338 323 325 303 285 267 263
92 99 85 101 114 98 107 117 110 104 102 101 335 338 38 58 51 24 333 315 284 266 258 265 301 290 301 316 317 310 304 302 310 324 322 323 321 310 292 281 260 251 235
95 96 89 93 98 117 91 83 95 101 113 110 277 336 40 273 308 308 312 299 310 306 303 334 315 314 308 298 293 270 285 295 294 305 302 296 294 296 283 284 270 249 233
85 91 102 93 89 80 106 150 164 167 178 196 221 271 289 281 273 272 265 280 301 312 304 302 295 298 307 309 303 292 270 271 265 272 286 287 288 291 297 284 267 259 261
98 111 125 166 190 189 206 227 235 269 272 256 258 261 262 265 271 275 275 276 279 276 282 291 289 300 304 309 305 304 294 299 290 277 270 262 270 283 278 280 274 251 242
98 127 155 196 219 217 236 248 249 249 253 252 247 244 248 251 254 262 262 264 264 262 277 263 281 299 303 295 293 295 292 301 287 271 256 247 263 278 280 278 279 254 247